Quitman, TX

8:21 PM CDT on August 29, 2016 (GMT -0500)
Mineola

Weather History for KJDD - May, 2014

Change the Weather History Date:

Wednesday, May 7, 2014

  Actual Average (KTYR) Record (KTYR)
Temperature  
Mean Temperature 74 °F 71 °F  
Max Temperature 82 °F 81 °F 94 °F (1984)
Min Temperature 66 °F 61 °F 44 °F (1931)
Degree Days  
Heating Degree Days 0 0  
Month to date heating degree days 6  
Since 1 July heating degree days 2268  
Cooling Degree Days 9 6  
Month to date cooling degree days 39  
Year to date cooling degree days 151  
Growing Degree Days 24 (Base 50)    
Moisture  
Dew Point 64 °F    
Average Humidity 70    
Maximum Humidity 88    
Minimum Humidity 54    
Precipitation  
Precipitation 0.00 in 0.16 in 1.60 in (1907)
Month to date precipitation 1.08  
Year to date precipitation 15.24  
Snow  
Snow 0.00 in - - ()
Month to date snowfall  
Since 1 July snowfall  
Snow Depth -    
Sea Level Pressure  
Sea Level Pressure 29.85 in    
Wind  
Wind Speed 9 mph (SSE)    
Max Wind Speed 15 mph    
Max Gust Speed 23 mph    
Visibility 9 miles    
Events      
T = Trace of Precipitation, MM = Missing Value Source: NWS Daily Summary

Daily Weather History Graph

Daily Weather History Graph

Search for Another Location

Airport or City:

Trip Planner

Search our weather history database for the weather conditions in past years. The results will help you decide how hot, cold, wet, or windy it might be!

Date:

Astronomy

May. 07, 2014 Rise Set
Actual Time 6:29 AM CDT 8:08 PM CDT
Civil Twilight 6:02 AM CDT 8:34 PM CDT
Nautical Twilight 5:30 AM CDT 9:06 PM CDT
Astronomical Twilight 4:57 AM CDT 9:40 PM CDT
Moon 1:36 PM CDT (5/7) 2:05 AM CDT (5/7)
Length of Visible Light 14h 32m
Length of Day
13h 38m
First Quarter, 55% of the Moon is Illuminated
May 7
First Quarter
May 14
Full
May 21
Last Quarter
May 28
New
Jun 5
First Quarter

Hourly Weather History & Observations

Time (CDT) Temp. Heat Index Dew Point Humidity Pressure Visibility Wind Dir Wind Speed Gust Speed Precip Events Conditions
12:15 AM 71.6 °F - 60.8 °F 69% 29.80 in 10.0 mi SSE 12.7 mph 16.1 mph N/A   Clear
12:35 AM 71.6 °F - 62.6 °F 73% 29.81 in 10.0 mi SSE 9.2 mph 20.7 mph N/A   Clear
12:55 AM 71.6 °F - 62.6 °F 73% 29.81 in 10.0 mi SSE 9.2 mph - N/A   Clear
1:15 AM 71.6 °F - 62.6 °F 73% 29.82 in 10.0 mi South 8.1 mph - N/A   Clear
1:35 AM 69.8 °F - 62.6 °F 78% 29.82 in 10.0 mi SSE 6.9 mph - N/A   Clear
1:55 AM 69.8 °F - 62.6 °F 78% 29.82 in 10.0 mi South 8.1 mph 17.3 mph N/A   Clear
2:15 AM 69.8 °F - 62.6 °F 78% 29.82 in 10.0 mi SSE 6.9 mph - N/A   Clear
2:35 AM 69.8 °F - 60.8 °F 73% 29.82 in 10.0 mi South 6.9 mph - N/A   Clear
2:55 AM 68.0 °F - 60.8 °F 78% 29.82 in 10.0 mi South 6.9 mph - N/A   Clear
3:15 AM 68.0 °F - 60.8 °F 78% 29.83 in 10.0 mi South 6.9 mph - N/A   Partly Cloudy
3:35 AM 68.0 °F - 60.8 °F 78% 29.83 in 10.0 mi South 4.6 mph - N/A   Scattered Clouds
3:55 AM 66.2 °F - 60.8 °F 83% 29.84 in 10.0 mi South 4.6 mph - N/A   Scattered Clouds
4:15 AM 68.0 °F - 60.8 °F 78% 29.85 in 10.0 mi South 5.8 mph - N/A   Mostly Cloudy
4:35 AM 68.0 °F - 60.8 °F 78% 29.85 in 10.0 mi South 5.8 mph - N/A   Overcast
4:55 AM 68.0 °F - 60.8 °F 78% 29.85 in 10.0 mi South 5.8 mph - N/A   Overcast
5:15 AM 68.0 °F - 62.6 °F 83% 29.86 in 10.0 mi South 5.8 mph - N/A   Overcast
5:35 AM 68.0 °F - 62.6 °F 83% 29.85 in 10.0 mi South 8.1 mph - N/A   Overcast
5:55 AM 68.0 °F - 62.6 °F 83% 29.85 in 10.0 mi South 6.9 mph - N/A   Overcast
6:15 AM 68.0 °F - 62.6 °F 83% 29.85 in 10.0 mi South 8.1 mph - N/A   Overcast
6:35 AM 68.0 °F - 62.6 °F 83% 29.85 in 9.0 mi South 5.8 mph - N/A   Mostly Cloudy
6:55 AM 68.0 °F - 62.6 °F 83% 29.87 in 9.0 mi South 9.2 mph - N/A   Mostly Cloudy
7:15 AM 68.0 °F - 62.6 °F 83% 29.87 in 9.0 mi SSE 5.8 mph - N/A   Overcast
7:35 AM 68.0 °F - 62.6 °F 83% 29.88 in 8.0 mi South 6.9 mph - N/A   Mostly Cloudy
7:55 AM 68.0 °F - 64.4 °F 88% 29.89 in 8.0 mi South 9.2 mph - N/A   Mostly Cloudy
8:15 AM 69.8 °F - 64.4 °F 83% 29.89 in 8.0 mi SSE 5.8 mph - N/A   Overcast
8:35 AM 69.8 °F - 64.4 °F 83% 29.89 in 9.0 mi South 9.2 mph - N/A   Overcast
8:55 AM 69.8 °F - 64.4 °F 83% 29.88 in 9.0 mi South 9.2 mph - N/A   Overcast
9:15 AM 71.6 °F - 64.4 °F 78% 29.88 in 9.0 mi South 9.2 mph 16.1 mph N/A   Overcast
9:35 AM 71.6 °F - 64.4 °F 78% 29.89 in 8.0 mi South 10.4 mph - N/A   Overcast
9:55 AM 71.6 °F - 64.4 °F 78% 29.89 in 8.0 mi South 10.4 mph 17.3 mph N/A   Overcast
10:15 AM 71.6 °F - 64.4 °F 78% 29.89 in 8.0 mi South 9.2 mph - N/A   Overcast
10:35 AM 71.6 °F - 64.4 °F 78% 29.89 in 8.0 mi South 9.2 mph - N/A   Overcast
10:55 AM 73.4 °F - 64.4 °F 73% 29.89 in 8.0 mi South 10.4 mph 19.6 mph N/A   Mostly Cloudy
11:15 AM 73.4 °F - 64.4 °F 73% 29.90 in 9.0 mi SSE 10.4 mph - N/A   Mostly Cloudy
11:35 AM 75.2 °F - 64.4 °F 69% 29.90 in 9.0 mi South 9.2 mph 16.1 mph N/A   Mostly Cloudy
11:55 AM 75.2 °F - 66.2 °F 73% 29.90 in 9.0 mi South 10.4 mph 18.4 mph N/A   Mostly Cloudy
12:15 PM 78.8 °F - 66.2 °F 65% 29.89 in 8.0 mi SSE 9.2 mph - N/A   Scattered Clouds
12:35 PM 78.8 °F - 64.4 °F 61% 29.90 in 9.0 mi SSE 8.1 mph 18.4 mph N/A   Scattered Clouds
12:55 PM 78.8 °F - 66.2 °F 65% 29.89 in 9.0 mi SSE 11.5 mph 18.4 mph N/A   Mostly Cloudy
1:15 PM 78.8 °F - 64.4 °F 61% 29.89 in 10.0 mi SSE 10.4 mph 20.7 mph N/A   Mostly Cloudy
1:35 PM 80.6 °F 82.3 °F 64.4 °F 58% 29.88 in 8.0 mi SSE 13.8 mph 17.3 mph N/A   Scattered Clouds
1:55 PM 80.6 °F 82.3 °F 64.4 °F 58% 29.89 in 9.0 mi South 15.0 mph 18.4 mph N/A   Partly Cloudy
2:15 PM 80.6 °F 81.8 °F 62.6 °F 54% 29.88 in 10.0 mi South 12.7 mph 23.0 mph N/A   Scattered Clouds
2:35 PM 80.6 °F 82.3 °F 64.4 °F 58% 29.88 in 10.0 mi SSE 12.7 mph 18.4 mph N/A   Scattered Clouds
2:55 PM 80.6 °F 82.3 °F 64.4 °F 58% 29.88 in 9.0 mi SSE 8.1 mph 19.6 mph N/A   Scattered Clouds
3:15 PM 80.6 °F 82.3 °F 64.4 °F 58% 29.87 in 9.0 mi SSE 11.5 mph - N/A   Scattered Clouds
3:35 PM 80.6 °F 82.3 °F 64.4 °F 58% 29.88 in 9.0 mi South 6.9 mph - N/A   Partly Cloudy
3:55 PM 80.6 °F 82.3 °F 64.4 °F 58% 29.86 in 9.0 mi SSE 8.1 mph - N/A   Partly Cloudy
4:15 PM 80.6 °F 82.7 °F 66.2 °F 61% 29.85 in 9.0 mi SE 6.9 mph 16.1 mph N/A   Clear
4:35 PM 80.6 °F 82.7 °F 66.2 °F 61% 29.85 in 9.0 mi SSE 8.1 mph - N/A   Clear
4:55 PM 80.6 °F 82.7 °F 66.2 °F 61% 29.85 in 10.0 mi SE 9.2 mph - N/A   Partly Cloudy
5:15 PM 82.4 °F 84.6 °F 66.2 °F 58% 29.84 in 9.0 mi SE 12.7 mph 16.1 mph N/A   Clear
5:35 PM 82.4 °F 83.9 °F 64.4 °F 54% 29.84 in 9.0 mi SE 8.1 mph 17.3 mph N/A   Clear
5:55 PM 82.4 °F 83.9 °F 64.4 °F 54% 29.84 in 9.0 mi SE 10.4 mph 17.3 mph N/A   Clear
6:15 PM 82.4 °F 83.9 °F 64.4 °F 54% 29.83 in 9.0 mi SE 10.4 mph 17.3 mph N/A   Clear
6:35 PM 82.4 °F 83.9 °F 64.4 °F 54% 29.83 in 9.0 mi SE 10.4 mph 18.4 mph N/A   Clear
6:55 PM 82.4 °F 83.9 °F 64.4 °F 54% 29.83 in 8.0 mi SSE 8.1 mph 17.3 mph N/A   Clear
7:15 PM 80.6 °F 82.3 °F 64.4 °F 58% 29.83 in 10.0 mi SSE 8.1 mph - N/A   Clear
7:35 PM 80.6 °F 82.3 °F 64.4 °F 58% 29.83 in 9.0 mi SSE 9.2 mph 17.3 mph N/A   Clear
7:55 PM 78.8 °F - 64.4 °F 61% 29.82 in 9.0 mi SE 8.1 mph - N/A   Clear
8:15 PM 78.8 °F - 64.4 °F 61% 29.82 in 9.0 mi SSE 8.1 mph - N/A   Clear
8:35 PM 77.0 °F - 64.4 °F 65% 29.83 in 10.0 mi SSE 6.9 mph - N/A   Clear
8:55 PM 77.0 °F - 64.4 °F 65% 29.83 in 10.0 mi SSE 6.9 mph - N/A   Clear
9:15 PM 75.2 °F - 64.4 °F 69% 29.83 in 10.0 mi SE 6.9 mph - N/A   Clear
9:35 PM 75.2 °F - 64.4 °F 69% 29.82 in 10.0 mi SSE 9.2 mph - N/A   Clear
9:55 PM 75.2 °F - 64.4 °F 69% 29.82 in 10.0 mi SE 9.2 mph - N/A   Clear
10:15 PM 75.2 °F - 64.4 °F 69% 29.83 in 10.0 mi SSE 9.2 mph - N/A   Clear
10:35 PM 75.2 °F - 64.4 °F 69% 29.83 in 10.0 mi SE 4.6 mph - N/A   Clear
10:55 PM 75.2 °F - 64.4 °F 69% 29.85 in 10.0 mi SSE 6.9 mph 17.3 mph N/A   Clear
11:15 PM 75.2 °F - 64.4 °F 69% 29.86 in 9.0 mi SE 8.1 mph - N/A   Partly Cloudy
11:35 PM 73.4 °F - 64.4 °F 73% 29.87 in 10.0 mi SSE 6.9 mph - N/A   Partly Cloudy
11:55 PM 73.4 °F - 64.4 °F 73% 29.89 in 10.0 mi South 8.1 mph - N/A   Clear